sat.trackr.live / text

‹ back to catalog

AEHF-2 (USA 235)

NORAD 38254 · 2012-019A

PAYLOAD ACTIVE UNKNOWN

§ Identity

Operator
Country
US
Launch date
2012-05-04
Launch site
AFETR
Launch vehicle
Mass (kg)
RCS (m²)
11.32

Purposes: comms

External: N2YO · Heavens-Above · Gunter

§ Orbital elements

Epoch: 2026-05-25T01:57:10.295424Z

Period
1,436.10 min
Inclination
6.5981°
Eccentricity
0.0002430
Mean motion
1.00271430 rev/d
Perigee alt
35,776.4 km
Apogee alt
35,796.9 km
Semi-major
42,164.8 km
B*
0.0000e+0
RAAN
57.6556°
Arg perigee
356.7893°
Mean anomaly
201.0582°
Rev number
675

§ Raw data

AEHF-2 (USA 235)1 38254U 12019A   26145.08136916 -.00000137  00000+0  00000+0 0  99972 38254   6.5981  57.6556 0002430 356.7893 201.0582  1.00271430  6751

JSON: /api/v1/satellites/38254 · /tle

For live sub-satellite position, see the globe view (requires WebGL).

§ Visibility from observer

Set your observer location to see the next 7 days of passes ≥ 10°. The values pass through the URL so the page stays shareable.

No JS? Fill the form by hand. The geolocation button needs JavaScript.